Time,TemperatureF,DewpointF,PressureIn,WindDirection,WindDirectionDegrees,WindSpeedMPH,WindSpeedGustMPH,Humidity,HourlyPrecipIn,Conditions,Clouds,dailyrainin,SoftwareType,DateUTC
2013-01-31 07:00:00,25.0,25.0,-100.00,WSW,253,21.0,28.0,99,-99.99,,,-99.99,,2013-01-31 15:00:00,
2013-01-31 08:00:00,25.0,25.0,-100.00,West,264,12.0,22.0,99,-99.99,,,-99.99,,2013-01-31 16:00:00,
2013-01-31 09:00:00,26.0,26.0,-100.00,SW,225,8.0,15.0,99,-99.99,,,-99.99,,2013-01-31 17:00:00,
2013-01-31 10:00:00,26.0,26.0,-100.00,West,270,10.0,25.0,100,-99.99,,,-99.99,,2013-01-31 18:00:00,
2013-01-31 11:00:00,27.0,27.0,-100.00,West,270,16.0,29.0,100,-99.99,,,-99.99,,2013-01-31 19:00:00,
2013-01-31 12:00:00,30.0,30.0,-100.00,WSW,251,17.0,27.0,100,-99.99,,,-99.99,,2013-01-31 20:00:00,
2013-01-31 13:00:00,30.0,30.0,-100.00,West,265,17.0,28.0,100,-99.99,,,-99.99,,2013-01-31 21:00:00,
2013-01-31 14:00:00,30.0,30.0,-100.00,West,271,20.0,29.0,100,-99.99,,,-99.99,,2013-01-31 22:00:00,
2013-01-31 15:00:00,30.0,30.0,-100.00,West,259,20.0,35.0,100,-99.99,,,-99.99,,2013-01-31 23:00:00,
2013-01-31 16:00:00,29.0,29.0,-100.00,West,277,20.0,30.0,100,-99.99,,,-99.99,,2013-02-01 00:00:00,
2013-01-31 16:52:00,29.0,29.0,-100.00,West,277,20.0,30.0,100,-99.99,,,-99.99,,2013-02-01 00:52:00,
2013-01-31 17:00:00,28.0,28.0,-100.00,WSW,255,17.0,31.0,100,-99.99,,,-99.99,,2013-02-01 01:00:00,
2013-01-31 17:52:00,28.0,28.0,-100.00,WSW,255,17.0,31.0,100,-99.99,,,-99.99,,2013-02-01 01:52:00,
2013-01-31 18:00:00,27.0,27.0,-100.00,West,273,20.0,37.0,100,-99.99,,,-99.99,,2013-02-01 02:00:00,
2013-01-31 18:52:00,27.0,27.0,-100.00,West,273,20.0,37.0,100,-99.99,,,-99.99,,2013-02-01 02:52:00,
2013-01-31 19:00:00,28.0,28.0,-100.00,SW,231,22.0,41.0,100,-99.99,,,-99.99,,2013-02-01 03:00:00,
2013-01-31 20:00:00,27.0,27.0,-100.00,NW,307,20.0,35.0,100,-99.99,,,-99.99,,2013-02-01 04:00:00,
2013-01-31 21:00:00,26.0,26.0,-100.00,West,274,18.0,32.0,99,-99.99,,,-99.99,,2013-02-01 05:00:00,
2013-01-31 22:00:00,24.0,24.0,-100.00,NW,321,15.0,28.0,98,-99.99,,,-99.99,,2013-02-01 06:00:00,
2013-01-31 23:00:00,23.0,23.0,-100.00,WSW,249,14.0,33.0,98,-99.99,,,-99.99,,2013-02-01 07:00:00,
2013-01-31 23:52:00,23.0,23.0,-100.00,WSW,249,14.0,33.0,98,-99.99,,,-99.99,,2013-02-01 07:52:00,